Pineville, WV

12:28 PM EST on December 05, 2019 (GMT -0500)
Pineville

Weather History for KI16 - October, 2019

Change the Weather History Date:

Tuesday, October 15, 2019

  Actual Average (WUND) Record (WUND)
Temperature  
Mean Temperature 58 °F -  
Max Temperature 80 °F - - (-1)
Min Temperature 37 °F - - (-1)
Degree Days  
Heating Degree Days 6    
Growing Degree Days 8 (Base 50)    
Moisture  
Dew Point 40 °F    
Average Humidity 67    
Maximum Humidity 97    
Minimum Humidity 14    
Precipitation  
Precipitation 0.00 in - - ()
Sea Level Pressure  
Sea Level Pressure 30.12 in    
Wind  
Wind Speed - (North)    
Max Wind Speed -    
Max Gust Speed -    
Visibility 10 miles    
Events      
Averages and records for this station are not official NWS values.
T = Trace of Precipitation, MM = Missing Value Source: NWS Daily Summary

Daily Weather History Graph

Daily Weather History Graph

Search for Another Location

Airport or City:

Astronomy

Oct. 15, 2019 Rise Set
Actual Time 7:34 AM EDT 6:49 PM EDT
Civil Twilight 7:07 AM EDT 7:15 PM EDT
Nautical Twilight 6:37 AM EDT 7:45 PM EDT
Astronomical Twilight 6:07 AM EDT 8:16 PM EDT
Moon 8:09 PM EDT (10/15) 9:02 AM EDT (10/15)
Length of Visible Light 12h 07m
Length of Day
11h 15m
Full, 97% of the Moon is Illuminated
Oct 15
Full
Oct 21
Last Quarter
Oct 27
New
Nov 4
First Quarter
Nov 12
Full

Hourly Weather History & Observations

Time (EDT) Temp. Dew Point Humidity Pressure Visibility Wind Dir Wind Speed Gust Speed Precip Events Conditions
12:15 AM 43.9 °F 41.0 °F 90% 30.20 in 10.0 mi North - - N/A   Clear
12:35 AM 43.5 °F 40.5 °F 89% 30.20 in 10.0 mi North - - N/A   Clear
12:55 AM 43.3 °F 40.5 °F 90% 30.20 in 10.0 mi North - - N/A   Clear
1:15 AM 43.0 °F 40.5 °F 91% 30.21 in 10.0 mi North - - N/A   Clear
1:35 AM 42.6 °F 40.1 °F 91% 30.20 in 10.0 mi North - - N/A   Clear
1:55 AM 42.3 °F 39.6 °F 90% 30.20 in 10.0 mi North - - N/A   Clear
2:15 AM 42.1 °F 40.1 °F 93% 30.20 in 10.0 mi North - - N/A   Clear
2:35 AM 41.5 °F 39.4 °F 92% 30.20 in 10.0 mi North - - N/A   Unknown
2:55 AM 41.4 °F 39.4 °F 93% 30.20 in 10.0 mi North - - N/A   Unknown
3:15 AM 40.6 °F 38.8 °F 93% 30.20 in 10.0 mi North - - N/A   Unknown
3:35 AM 40.5 °F 38.8 °F 94% 30.20 in 10.0 mi North - - N/A   Unknown
3:55 AM 40.1 °F 38.5 °F 94% 30.20 in 10.0 mi North - - N/A   Unknown
4:15 AM 40.1 °F 38.3 °F 93% 30.20 in 10.0 mi North - - N/A   Unknown
4:35 AM 39.7 °F 38.3 °F 95% 30.19 in 10.0 mi North - - N/A   Clear
4:55 AM 39.2 °F 37.8 °F 95% 30.19 in 10.0 mi North - - N/A   Clear
5:15 AM 39.4 °F 38.1 °F 95% 30.20 in 10.0 mi North - - N/A   Clear
5:35 AM 39.2 °F 38.1 °F 96% 30.20 in 10.0 mi North - - N/A   Clear
5:55 AM 38.7 °F 37.6 °F 96% 30.21 in 10.0 mi North - - N/A   Clear
6:15 AM 38.5 °F 37.2 °F 95% 30.21 in 10.0 mi North - - N/A   Clear
6:35 AM 37.8 °F 36.7 °F 96% 30.21 in 10.0 mi North - - N/A   Unknown
6:55 AM 37.9 °F 36.9 °F 96% 30.21 in 10.0 mi North - - N/A   Unknown
7:15 AM 37.9 °F 36.9 °F 96% 30.22 in 10.0 mi North - - N/A   Unknown
7:35 AM 37.4 °F 36.5 °F 97% 30.22 in 10.0 mi North - - N/A   Unknown
7:55 AM 37.4 °F 36.5 °F 97% 30.22 in 10.0 mi North - - N/A   Unknown
8:15 AM 37.4 °F 36.5 °F 97% 30.21 in 10.0 mi North - - N/A   Unknown
8:35 AM 38.1 °F 37.4 °F 97% 30.21 in 10.0 mi North - - N/A   Unknown
8:55 AM 39.6 °F 38.7 °F 97% 30.21 in 10.0 mi North - - N/A   Unknown
9:15 AM 42.6 °F 41.7 °F 97% 30.20 in 10.0 mi North - - N/A   Unknown
9:35 AM 45.5 °F 43.3 °F 92% 30.20 in 10.0 mi North - - N/A   Unknown
9:55 AM 48.2 °F 44.8 °F 88% 30.20 in 10.0 mi North - - N/A   Clear
10:15 AM 51.4 °F 46.4 °F 83% 30.19 in 10.0 mi North - - N/A   Clear
10:35 AM 54.1 °F 47.1 °F 77% 30.18 in 10.0 mi North - - N/A   Clear
10:55 AM 59.2 °F 48.7 °F 68% 30.18 in 10.0 mi North - - N/A   Clear
11:15 AM 64.8 °F 45.5 °F 50% 30.16 in 10.0 mi North - - N/A   Clear
11:35 AM 67.8 °F 43.9 °F 42% 30.16 in 10.0 mi North - - N/A   Clear
11:55 AM 69.4 °F 41.9 °F 37% 30.15 in 10.0 mi North - - N/A   Clear
12:15 PM 70.2 °F 42.3 °F 36% 30.15 in 10.0 mi North - - N/A   Clear
12:35 PM 72.7 °F 39.0 °F 29% 30.13 in 10.0 mi North - - N/A   Clear
12:55 PM 74.1 °F 37.8 °F 27% 30.12 in 10.0 mi North - - N/A   Clear
1:15 PM 75.7 °F 36.3 °F 24% 30.11 in 10.0 mi North - - N/A   Clear
1:35 PM 76.5 °F 30.4 °F 18% 30.10 in 10.0 mi North - - N/A   Clear
1:55 PM 77.2 °F 29.3 °F 17% 30.09 in 10.0 mi North - - N/A   Clear
2:15 PM 77.9 °F 24.1 °F 14% 30.08 in 10.0 mi North - - N/A   Clear
2:35 PM 78.6 °F 28.6 °F 16% 30.06 in 10.0 mi North - - N/A   Clear
2:55 PM 78.8 °F 33.4 °F 19% 30.04 in 10.0 mi North - - N/A   Clear
3:15 PM 79.2 °F 28.8 °F 16% 30.04 in 10.0 mi North - - N/A   Clear
3:35 PM 79.2 °F 28.4 °F 16% 30.02 in 10.0 mi North - - N/A   Clear
3:55 PM 80.1 °F 27.1 °F 14% 30.02 in 10.0 mi North - - N/A   Clear
4:15 PM 79.3 °F 33.3 °F 19% 30.02 in 10.0 mi North - - N/A   Clear
4:35 PM 77.4 °F 33.3 °F 20% 30.02 in 10.0 mi North - - N/A   Clear
4:55 PM 75.4 °F 39.9 °F 28% 30.02 in 10.0 mi North - - N/A   Clear
5:15 PM 73.4 °F 41.9 °F 32% 30.01 in 10.0 mi North - - N/A   Clear
5:35 PM 70.9 °F 44.4 °F 39% 30.01 in 10.0 mi North - - N/A   Clear
5:55 PM 68.5 °F 44.4 °F 42% 30.00 in 10.0 mi North - - N/A   Clear
6:15 PM 67.1 °F 45.5 °F 46% 30.00 in 10.0 mi North - - N/A   Clear
6:35 PM 65.5 °F 45.5 °F 48% 30.01 in 10.0 mi North - - N/A   Clear
6:55 PM 63.9 °F 46.9 °F 54% 30.01 in 10.0 mi North - - N/A   Clear
7:15 PM 62.2 °F 46.8 °F 57% 30.01 in 10.0 mi North - - N/A   Clear
7:35 PM 60.6 °F 46.9 °F 61% 30.02 in 10.0 mi North - - N/A   Clear
7:55 PM 59.4 °F 47.3 °F 64% 30.01 in 10.0 mi North - - N/A   Clear
8:15 PM 57.9 °F 46.6 °F 66% 30.01 in 10.0 mi North - - N/A   Clear
8:35 PM 57.2 °F 46.6 °F 68% 30.02 in 10.0 mi North - - N/A   Clear
8:55 PM 56.7 °F 46.4 °F 69% 30.01 in 10.0 mi North - - N/A   Clear
9:15 PM 56.7 °F 46.8 °F 69% 30.01 in 10.0 mi North - - N/A   Clear
9:35 PM 55.9 °F 47.3 °F 73% 30.01 in 10.0 mi North - - N/A   Clear
9:55 PM 56.1 °F 47.3 °F 72% 30.01 in 10.0 mi North - - N/A   Clear
10:15 PM 55.4 °F 46.9 °F 73% 30.01 in 10.0 mi North - - N/A   Clear
10:35 PM 54.9 °F 46.8 °F 74% 30.00 in 10.0 mi North - - N/A   Clear
10:55 PM 54.0 °F 46.8 °F 77% 30.00 in 10.0 mi North - - N/A   Clear
11:35 PM 52.9 °F 46.6 °F 79% 29.99 in 10.0 mi North - - N/A   Clear
11:55 PM 52.5 °F 46.8 °F 81% 29.98 in 10.0 mi North - - N/A   Clear